[[{"header":{"parameterUnit":"m.s-1","parameterCategory":1,"la1":30.2991,"la2":30.254,"lo1":-89.0895,"lo2":-89.0444,"dy":0.0017,"dx":0.0017,"nx":28,"ny":28,"refTime":"2025-07-28T03:00:00:Z","depth":0,"parameterNumber":2,"parameterNumberName":"U-component_of_WINDS"},"data":[0,0,0,0,0,0,0,0,0,0,0,0,0,0,0,0,0,0,0,0,0,0,0,0,0,0,0,0,0,0,0,0,0,0,0,0,0,0,0,0,0,0,0,0,0,0,0,0,0,0,0,0,0,0,0,0,0,0,0.5411,0.5412,0,0.5489,0.549,0.549,0.5528,0.5528,0.5528,0.5528,0.5606,0.5608,0.561,0,0,0,0,0,0,0,0,0,0,0,0,0,0.5292,0.5294,0.5411,0.5412,0.5413,0.5489,0.549,0.5491,0.5528,0.5528,0.5528,0.5528,0.5606,0.5608,0.5611,0,0,0,0,0,0,0,0,0,0,0,0,0,0.5354,0.5295,0.5411,0.544,0.5444,0.5488,0.549,0.5491,0.5528,0.5528,0.5528,0.5528,0.5605,0.5608,0.5611,0.5631,0,0,0.5621,0.5622,0,0,0,0,0,0,0,0,0.535,0.5358,0.5435,0.5438,0.5442,0.5499,0.5477,0.5538,0.5528,0.5496,0.5528,0.5528,0.557,0.5576,0.5591,0.5635,0.5638,0.5621,0.5623,0.5624,0.5625,0,0,0,0,0,0,0,0.5346,0.5355,0.5442,0.5436,0.5441,0.5449,0.5458,0.5488,0.5532,0.5499,0.5502,0.551,0.5572,0.5588,0.5593,0.5639,0.5621,0.5624,0.5626,0.5627,0.5703,0.5704,0,0,0,0,0,0,0.5337,0.5351,0.5439,0.5444,0.5395,0.5451,0.5461,0.548,0.5532,0.554,0.551,0.5512,0.5582,0.5589,0.5596,0.5623,0.5624,0.5627,0.5629,0.5703,0.5703,0.5704,0,0,0,0,0,0,0.5334,0.5345,0.5436,0.5398,0.5411,0.5453,0.5475,0.5482,0.5498,0.5541,0.5549,0.5518,0.5583,0.5592,0.5622,0.5626,0.5629,0.5631,0.5703,0.5703,0.5704,0.5677,0,0,0,0,0,0,0.5331,0.5343,0.5352,0.5398,0.5413,0.5461,0.5475,0.5484,0.5503,0.5506,0.555,0.5558,0.5583,0.5617,0.5625,0.5631,0.5634,0.5703,0.5703,0.5703,0.5678,0.5677,0.5675,0,0,0,0,0,0.5327,0.5341,0.5352,0.5363,0.5424,0.5461,0.5469,0.5499,0.5503,0.5512,0.554,0.5556,0.5624,0.562,0.563,0.5636,0.5703,0.5703,0.5703,0.5679,0.5677,0.5675,0,0,0,0,0,0,0.5294,0.5348,0.5361,0.5391,0.5421,0.5468,0.548,0.5496,0.5526,0.5527,0.5562,0.5571,0.5599,0.562,0.5615,0.5658,0.5665,0.5667,0.5643,0.5642,0.564,0.5635,0.5637,0,0,0,0,0,0.529,0.5317,0.5362,0.5384,0.5399,0.5437,0.5454,0.5474,0.5506,0.5519,0.5549,0.558,0.5608,0.5626,0.5655,0.5681,0.5691,0.569,0.5689,0.5687,0.5689,0.5704,0.5704,0.5705,0.5705,0.5705,0,0,0.5283,0.5316,0.533,0.5379,0.5405,0.543,0.5447,0.5474,0.5493,0.5523,0.5554,0.5577,0.5613,0.5642,0.5656,0.5661,0.5691,0.5688,0.5686,0.5689,0.5704,0.5704,0.5704,0.5705,0.5705,0.5705,0,0,0.5283,0.5311,0.5332,0.5358,0.5397,0.5422,0.5427,0.5471,0.5487,0.5519,0.5542,0.5565,0.5613,0.5638,0.5657,0.5665,0.5681,0.5673,0.5667,0.5681,0.5681,0.5681,0.5684,0.5685,0.5675,0.5675,0.5675,0,0.5269,0.5309,0.5341,0.5367,0.5387,0.5416,0.5438,0.5461,0.5507,0.552,0.5524,0.5585,0.5612,0.5646,0.5648,0.5662,0.5669,0.5669,0.5678,0.5679,0.568,0.5683,0.5684,0.5673,0.5674,0.5674,0.5674,0,0.529,0.5318,0.533,0.5375,0.5396,0.542,0.5454,0.5472,0.549,0.5514,0.5545,0.5578,0.5613,0.5623,0.5641,0.566,0.5662,0.5672,0.568,0.5678,0.5681,0.5683,0.5672,0.5672,0.5673,0.5673,0,0,0.5272,0.5334,0.5338,0.5358,0.5403,0.5425,0.5449,0.5484,0.5498,0.5529,0.555,0.5589,0.5599,0.562,0.5641,0.5654,0.5658,0.5662,0.5664,0.566,0.5681,0.5673,0.5673,0.5669,0.5669,0.5669,0.5677,0,0.5278,0.5324,0.5353,0.5387,0.5413,0.544,0.5461,0.549,0.5513,0.5538,0.5563,0.559,0.5601,0.5614,0.5628,0.5654,0.5662,0.5654,0.5688,0.5689,0.5678,0.5675,0.5667,0.5673,0.5679,0.5679,0.5679,0,0.5292,0.5322,0.5359,0.5401,0.5413,0.5431,0.5465,0.5489,0.5522,0.5538,0.5561,0.5582,0.5608,0.5613,0.5649,0.5643,0.5658,0.5673,0.5674,0.5679,0.5684,0.568,0.5676,0.5677,0.5682,0.5682,0.5682,0,0.5275,0.5325,0.5354,0.537,0.542,0.5432,0.5453,0.5487,0.5506,0.5535,0.5548,0.5579,0.5597,0.5621,0.5649,0.5651,0.5682,0.569,0.5695,0.5694,0.5701,0.57,0.57,0.571,0.571,0.571,0.571,0,0.5279,0.53,0.5347,0.5364,0.5388,0.5421,0.5444,0.5467,0.5496,0.5518,0.5544,0.5563,0.56,0.5623,0.5646,0.5672,0.5679,0.5692,0.5698,0.569,0.5689,0.5701,0.5701,0.5711,0.5711,0.5711,0.5711,0,0.5265,0.5297,0.5329,0.5374,0.5385,0.5401,0.5439,0.5456,0.548,0.5507,0.5515,0.5553,0.5582,0.5613,0.5653,0.5668,0.5693,0.5701,0.5682,0.5685,0.5688,0.5688,0.5696,0.5699,0.5707,0.5707,0.5707,0,0.5265,0.5282,0.5329,0.5346,0.5366,0.5393,0.5413,0.5445,0.5464,0.5503,0.5516,0.5547,0.5574,0.5619,0.565,0.568,0.5689,0.569,0.5693,0.5685,0.5689,0.5687,0.5689,0.5688,0.5688,0.5688,0.5688,0,0.5263,0.5278,0.5306,0.5339,0.5362,0.5389,0.5418,0.543,0.5467,0.5487,0.5518,0.5539,0.5579,0.561,0.5644,0.5665,0.5682,0.5686,0.5689,0.5681,0.5669,0.5676,0.5678,0.5686,0.5686,0.5686,0.5686,0.5686,0.5256,0.5272,0.5308,0.5338,0.5363,0.5388,0.5407,0.5433,0.546,0.5496,0.5513,0.5543,0.5576,0.5623,0.5643,0.5667,0.5672,0.5676,0.5677,0.5678,0.5676,0.5665,0.5673,0.5673,0.5673,0.5674,0.5674,0,0.5255,0.5279,0.5306,0.5346,0.5369,0.5384,0.5416,0.5434,0.5461,0.549,0.5516,0.5551,0.558,0.5612,0.5644,0.5656,0.5665,0.5664,0.5663,0.5667,0.567,0.5664,0.5656,0.5656,0.5656,0.5656,0.5656,0.5656,0.5257,0.5286,0.5305,0.5345,0.5369,0.54,0.5417,0.544,0.5464,0.5502,0.5527,0.5548,0.5578,0.5611,0.5639,0.5647,0.5658,0.5654,0.5665,0.5666,0.5667,0.5669,0.5664,0.5656,0.5656,0.5661,0.5661,0.5661]},{"header":{"parameterUnit":"m.s-1","parameterCategory":1,"la1":30.2991,"la2":30.254,"lo1":-89.0895,"lo2":-89.0444,"dy":0.0017,"dx":0.0017,"nx":28,"ny":28,"refTime":"2025-07-28T03:00:00:Z","depth":0,"parameterNumber":3,"parameterNumberName":"V-component_of_WINDS"},"data":[0,0,0,0,0,0,0,0,0,0,0,0,0,0,0,0,0,0,0,0,0,0,0,0,0,0,0,0,0,0,0,0,0,0,0,0,0,0,0,0,0,0,0,0,0,0,0,0,0,0,0,0,0,0,0,0,0,0,3.3369,3.3369,0,3.3373,3.3373,3.3373,3.3406,3.3406,3.3407,3.3408,3.3409,3.3408,3.3408,0,0,0,0,0,0,0,0,0,0,0,0,0,3.3386,3.3386,3.3369,3.3369,3.3369,3.3373,3.3373,3.3373,3.3406,3.3407,3.3407,3.3408,3.3409,3.3408,3.3407,0,0,0,0,0,0,0,0,0,0,0,0,0,3.3383,3.3385,3.3369,3.3386,3.3387,3.3373,3.3373,3.3373,3.3405,3.3407,3.3408,3.3409,3.3409,3.3408,3.3407,3.3376,0,0,3.3404,3.3404,0,0,0,0,0,0,0,0,3.3383,3.3383,3.3383,3.3385,3.3386,3.339,3.338,3.3374,3.3405,3.3398,3.3408,3.3409,3.3402,3.3401,3.3399,3.3376,3.3376,3.3404,3.3403,3.3403,3.3402,0,0,0,0,0,0,0,3.3383,3.3383,3.3371,3.3383,3.3385,3.3392,3.3393,3.3379,3.3393,3.3399,3.3401,3.3402,3.3403,3.34,3.3399,3.3376,3.3404,3.3403,3.3402,3.3402,3.3327,3.3326,0,0,0,0,0,0,3.3382,3.3382,3.3371,3.3371,3.3388,3.3391,3.3392,3.3388,3.3393,3.3395,3.3401,3.3403,3.3401,3.3401,3.34,3.3363,3.3403,3.3402,3.3401,3.3328,3.3327,3.3325,0,0,0,0,0,0,3.3382,3.338,3.337,3.3377,3.3377,3.3389,3.3384,3.3387,3.3385,3.3395,3.3397,3.3396,3.3402,3.3401,3.3382,3.3363,3.3401,3.34,3.333,3.3328,3.3326,3.3289,0,0,0,0,0,0,3.3382,3.338,3.3369,3.3377,3.3376,3.3353,3.3383,3.3386,3.3383,3.3387,3.3391,3.3392,3.3403,3.3383,3.3381,3.3363,3.3399,3.3332,3.3329,3.3327,3.3292,3.3286,3.3281,0,0,0,0,0,3.3383,3.3359,3.3369,3.3367,3.3363,3.3352,3.3352,3.3366,3.3382,3.337,3.3376,3.3392,3.3366,3.3381,3.3378,3.336,3.3333,3.333,3.3327,3.3295,3.3288,3.3282,0,0,0,0,0,0,3.3348,3.336,3.3371,3.3349,3.3349,3.3358,3.3344,3.3358,3.3353,3.3356,3.3373,3.3373,3.3351,3.3354,3.337,3.3329,3.3352,3.3348,3.3329,3.3322,3.3316,3.3316,3.3399,0,0,0,0,0,3.3337,3.3329,3.334,3.3319,3.3319,3.3331,3.3327,3.3338,3.3339,3.3339,3.3344,3.3343,3.3334,3.3328,3.3321,3.3293,3.3294,3.3279,3.3273,3.3269,3.3265,3.3249,3.3242,3.3316,3.3316,3.3316,0,0,3.3316,3.3321,3.3315,3.3312,3.3314,3.3303,3.3331,3.3319,3.3311,3.3337,3.3319,3.3322,3.3322,3.3298,3.3288,3.3299,3.3245,3.3265,3.3261,3.326,3.3245,3.3238,3.3232,3.3314,3.3314,3.3314,0,0,3.3271,3.3275,3.3258,3.3259,3.3262,3.327,3.3266,3.3272,3.3276,3.3258,3.3277,3.3267,3.3253,3.3252,3.3249,3.3204,3.3218,3.3201,3.3172,3.3156,3.315,3.3145,3.3128,3.3122,3.3197,3.3197,3.3197,0,3.3244,3.323,3.3247,3.3234,3.3231,3.3255,3.3236,3.3236,3.3236,3.3233,3.3246,3.3228,3.323,3.3205,3.3194,3.3192,3.3187,3.32,3.315,3.3145,3.3141,3.3124,3.3118,3.3195,3.3195,3.3196,3.3196,0,3.3195,3.3186,3.3171,3.3171,3.3167,3.3151,3.3164,3.3158,3.3169,3.3176,3.3157,3.316,3.3153,3.3148,3.3159,3.3125,3.3132,3.3147,3.317,3.3131,3.3116,3.311,3.3192,3.3193,3.3193,3.3194,0,0,3.3128,3.3138,3.3132,3.3132,3.3137,3.3129,3.3113,3.3108,3.3102,3.31,3.3087,3.3074,3.3088,3.3085,3.3096,3.3082,3.3044,3.3099,3.3099,3.3088,3.3006,3.2994,3.2986,3.3054,3.3053,3.3052,3.3005,0,3.3085,3.306,3.3075,3.3048,3.3038,3.306,3.3047,3.3047,3.3053,3.3044,3.305,3.3041,3.3061,3.3059,3.3046,3.3052,3.3028,3.3055,3.304,3.304,3.3039,3.2978,3.2966,3.2922,3.3,3.2999,3.2998,0,3.303,3.3028,3.3,3.3006,3.3002,3.299,3.2986,3.2978,3.2978,3.2983,3.298,3.2994,3.2978,3.3001,3.2979,3.2997,3.2991,3.2993,3.2992,3.299,3.3016,3.2974,3.2908,3.2901,3.2989,3.299,3.299,0,3.2983,3.2972,3.2954,3.2953,3.296,3.2951,3.2953,3.2955,3.295,3.2946,3.2943,3.2937,3.2933,3.2927,3.2938,3.2954,3.2913,3.2938,3.2916,3.2915,3.2906,3.2906,3.2837,3.2903,3.2904,3.2904,3.2904,0,3.2932,3.2914,3.2933,3.2922,3.2901,3.2918,3.2897,3.2901,3.2903,3.2892,3.291,3.2899,3.2914,3.2904,3.2913,3.2892,3.289,3.2893,3.2895,3.2891,3.289,3.2887,3.289,3.2902,3.2902,3.2903,3.2903,0,3.2875,3.2888,3.2869,3.2877,3.2878,3.2863,3.2869,3.2858,3.2866,3.2851,3.2849,3.2859,3.2848,3.2859,3.2848,3.2854,3.2826,3.2833,3.2826,3.2827,3.2804,3.2806,3.273,3.272,3.2794,3.2793,3.2793,0,3.2842,3.2828,3.2835,3.283,3.2831,3.2822,3.2817,3.2832,3.2827,3.2826,3.2815,3.2806,3.28,3.2781,3.2787,3.2778,3.2785,3.2759,3.2783,3.2779,3.2783,3.2783,3.2782,3.2753,3.2752,3.2752,3.2751,0,3.278,3.2787,3.2781,3.2776,3.2771,3.2768,3.2766,3.276,3.2776,3.2769,3.2758,3.2753,3.2743,3.2733,3.2727,3.2727,3.2741,3.2743,3.2738,3.2733,3.2729,3.2729,3.2811,3.2745,3.2745,3.2746,3.2746,3.2746,3.2734,3.2723,3.2725,3.2718,3.2718,3.2716,3.2706,3.2712,3.2704,3.2698,3.2707,3.2694,3.2693,3.2686,3.2685,3.2674,3.2685,3.2677,3.2675,3.2672,3.2668,3.2731,3.2673,3.2673,3.2673,3.2674,3.2674,0,3.2673,3.2676,3.2668,3.2666,3.2659,3.2674,3.2673,3.2666,3.2655,3.2654,3.2647,3.2635,3.2625,3.263,3.2622,3.2612,3.2618,3.2609,3.2609,3.2609,3.266,3.2665,3.2604,3.2604,3.2604,3.2604,3.2604,3.2604,3.264,3.2622,3.2629,3.261,3.2613,3.2601,3.2599,3.2597,3.2596,3.2582,3.2575,3.2578,3.2579,3.2571,3.2562,3.2564,3.2559,3.2548,3.2552,3.2599,3.2606,3.2612,3.2617,3.2547,3.2547,3.2502,3.2501,3.2501]}]]